GLD352 TGPY-TNCM

Flight info

Callsign GLD352
Flight time N/A
Altitude 37000
Route DCT TULEX DCT ZPATA DCT
Aircraft A320/M-SDFGIRY/S

Departure

Time 2026-04-28 23:23
Airport Maurice Bishop International Airport (TGPY)

Arrival

Time N/A
Airport Princess Juliana International Airport (TNCM)
Time Latitude Longitude Altitude Speed Heading
2026-04-28 23:05 12.00663 -61.78496 48 ft 0 kts
2026-04-28 23:16 12.00652 -61.78496 47 ft 4 kts
2026-04-28 23:16 12.00625 -61.78495 46 ft 4 kts 351°
2026-04-28 23:17 12.00600 -61.78488 45 ft 4 kts 326°
2026-04-28 23:17 12.00587 -61.78473 41 ft 1 kts 269°
2026-04-28 23:17 12.00587 -61.78472 41 ft 1 kts 269°
2026-04-28 23:19 12.00587 -61.78479 42 ft 4 kts 269°
2026-04-28 23:19 12.00571 -61.78544 44 ft 15 kts 263°
2026-04-28 23:19 12.00488 -61.78599 42 ft 11 kts 188°
2026-04-28 23:19 12.00415 -61.78632 42 ft 13 kts 242°
2026-04-28 23:20 12.00410 -61.78728 42 ft 15 kts 271°
2026-04-28 23:20 12.00413 -61.78840 41 ft 17 kts 271°
2026-04-28 23:20 12.00415 -61.78971 40 ft 20 kts 271°
2026-04-28 23:20 12.00418 -61.79120 39 ft 22 kts 270°
2026-04-28 23:21 12.00417 -61.79284 38 ft 20 kts 270°
2026-04-28 23:21 12.00417 -61.79426 37 ft 21 kts 271°
2026-04-28 23:21 12.00416 -61.79586 36 ft 24 kts 270°
2026-04-28 23:21 12.00417 -61.79729 35 ft 18 kts 272°
2026-04-28 23:22 12.00452 -61.79825 34 ft 13 kts 280°
2026-04-28 23:22 12.00412 -61.79802 34 ft 12 kts 91°
2026-04-28 23:22 12.00413 -61.79790 34 ft 0 kts 89°
2026-04-28 23:22 12.00412 -61.79524 36 ft 73 kts 90°
2026-04-28 23:23 12.00406 -61.78799 42 ft 128 kts 90°
2026-04-28 23:23 12.00399 -61.77743 149 ft 159 kts 92°
2026-04-28 23:23 12.00391 -61.76727 996 ft 133 kts 87°
2026-04-28 23:23 12.00464 -61.75721 1186 ft 160 kts 85°
2026-04-28 23:24 12.00566 -61.74580 1775 ft 150 kts 84°
2026-04-28 23:24 12.00748 -61.73575 2329 ft 148 kts 66°
2026-04-28 23:24 12.01314 -61.72664 2668 ft 153 kts 42°
2026-04-28 23:24 12.02183 -61.72055 3132 ft 154 kts 21°
2026-04-28 23:25 12.03237 -61.71770 3520 ft 161 kts
2026-04-28 23:25 12.04396 -61.71809 3816 ft 177 kts 340°
2026-04-28 23:25 12.05603 -61.72320 4110 ft 200 kts 336°
2026-04-28 23:25 12.06948 -61.72922 4461 ft 223 kts 336°
2026-04-28 23:26 12.08442 -61.73590 4826 ft 246 kts 336°
2026-04-28 23:26 12.10079 -61.74323 5309 ft 265 kts 336°
2026-04-28 23:26 12.11809 -61.75038 6088 ft 271 kts 341°
2026-04-28 23:26 12.13639 -61.75548 6940 ft 275 kts 347°
2026-04-28 23:27 12.15524 -61.75953 7770 ft 278 kts 348°
2026-04-28 23:27 12.17461 -61.76333 8599 ft 282 kts 349°
2026-04-28 23:27 12.19395 -61.76713 9398 ft 285 kts 348°
2026-04-28 23:27 12.21355 -61.77110 10170 ft 289 kts 348°
2026-04-28 23:28 12.23386 -61.77537 10530 ft 309 kts 348°
2026-04-28 23:28 12.25565 -61.78010 10829 ft 328 kts 347°
2026-04-28 23:28 12.27822 -61.78510 11449 ft 335 kts 347°
2026-04-28 23:28 12.30114 -61.79021 12148 ft 339 kts 347°
2026-04-28 23:29 12.32432 -61.79541 12848 ft 342 kts 347°
2026-04-28 23:29 12.34766 -61.80065 13532 ft 346 kts 347°
2026-04-28 23:29 12.37134 -61.80594 14210 ft 350 kts 347°
2026-04-28 23:29 12.39520 -61.81126 14865 ft 353 kts 347°
2026-04-28 23:30 12.41931 -61.81664 15508 ft 356 kts 347°
2026-04-28 23:30 12.44367 -61.82208 16131 ft 360 kts 347°
2026-04-28 23:30 12.46826 -61.82757 16742 ft 363 kts 347°
2026-04-28 23:30 12.49305 -61.83310 17335 ft 366 kts 347°
2026-04-28 23:31 12.51807 -61.83870 17917 ft 369 kts 347°
2026-04-28 23:31 12.54325 -61.84433 18491 ft 373 kts 347°
2026-04-28 23:31 12.56872 -61.85002 19058 ft 376 kts 347°
2026-04-28 23:31 12.59441 -61.85575 19651 ft 379 kts 347°
2026-04-28 23:32 12.62028 -61.86151 20244 ft 383 kts 347°
2026-04-28 23:32 12.64645 -61.86735 20795 ft 386 kts 347°
2026-04-28 23:32 12.67275 -61.87324 21334 ft 389 kts 347°
2026-04-28 23:32 12.69928 -61.87918 21835 ft 392 kts 347°
2026-04-28 23:33 12.72604 -61.88519 22335 ft 395 kts 347°
2026-04-28 23:33 12.75299 -61.89124 22829 ft 398 kts 347°
2026-04-28 23:33 12.78050 -61.89741 23325 ft 401 kts 347°
2026-04-28 23:33 12.80787 -61.90351 23820 ft 404 kts 347°
2026-04-28 23:34 12.83506 -61.90957 24293 ft 407 kts 347°
2026-04-28 23:34 12.86282 -61.91577 24770 ft 410 kts 347°
2026-04-28 23:34 12.89077 -61.92205 25234 ft 413 kts 347°
2026-04-28 23:34 12.91893 -61.92837 25684 ft 416 kts 347°
2026-04-28 23:35 12.94728 -61.93470 26134 ft 419 kts 347°
2026-04-28 23:35 12.97587 -61.94107 26572 ft 422 kts 347°
2026-04-28 23:35 13.00461 -61.94751 27003 ft 424 kts 347°
2026-04-28 23:35 13.03354 -61.95401 27424 ft 427 kts 347°
2026-04-28 23:36 13.06266 -61.96057 27842 ft 430 kts 347°
2026-04-28 23:36 13.09195 -61.96718 28248 ft 433 kts 347°
2026-04-28 23:36 13.12142 -61.97383 28647 ft 435 kts 347°
2026-04-28 23:36 13.15093 -61.98044 29032 ft 438 kts 347°
2026-04-28 23:37 13.18097 -61.98717 29412 ft 440 kts 347°
2026-04-28 23:37 13.21106 -61.99391 29777 ft 443 kts 347°
2026-04-28 23:37 13.24118 -62.00065 30134 ft 445 kts 347°
2026-04-28 23:37 13.27157 -62.00745 30492 ft 447 kts 347°
2026-04-28 23:38 13.30188 -62.01427 30966 ft 446 kts 347°
2026-04-28 23:38 13.33215 -62.02109 31426 ft 444 kts 347°
2026-04-28 23:38 13.36234 -62.02792 31847 ft 444 kts 347°
2026-04-28 23:38 13.39247 -62.03473 31983 ft 443 kts 347°
2026-04-28 23:39 13.44189 -62.04588 32009 ft 434 kts 347°
2026-04-28 23:39 13.50070 -62.05915 32009 ft 432 kts 347°
2026-04-28 23:40 13.55988 -62.07244 32009 ft 432 kts 347°
2026-04-28 23:40 13.61861 -62.08560 32009 ft 432 kts 347°
2026-04-28 23:41 13.67732 -62.09886 32011 ft 432 kts 347°
2026-04-28 23:41 13.73606 -62.11213 32014 ft 432 kts 347°
2026-04-28 23:42 13.79487 -62.12536 32016 ft 432 kts 347°
2026-04-28 23:42 13.85363 -62.13867 32017 ft 432 kts 347°
2026-04-28 23:43 13.91236 -62.15193 32016 ft 432 kts 347°
2026-04-28 23:43 13.97111 -62.16521 32015 ft 432 kts 347°
2026-04-28 23:44 14.02980 -62.17851 32014 ft 432 kts 347°
2026-04-28 23:44 14.08844 -62.19178 32013 ft 432 kts 347°
2026-04-28 23:45 14.14712 -62.20501 32012 ft 432 kts 347°
2026-04-28 23:45 14.20587 -62.21825 32012 ft 432 kts 347°
2026-04-28 23:46 14.26451 -62.23153 32012 ft 432 kts 347°
2026-04-28 23:46 14.32317 -62.24491 32012 ft 432 kts 347°
2026-04-28 23:47 14.38182 -62.25824 32013 ft 432 kts 347°
2026-04-28 23:47 14.44051 -62.27158 32013 ft 432 kts 347°
2026-04-28 23:48 14.49864 -62.28482 32013 ft 432 kts 347°
2026-04-28 23:48 14.55728 -62.29817 32012 ft 432 kts 347°
2026-04-28 23:49 14.61591 -62.31148 32012 ft 431 kts 347°
2026-04-28 23:49 14.67427 -62.32472 31974 ft 420 kts 347°
2026-04-28 23:50 14.73158 -62.33787 32010 ft 426 kts 347°
2026-04-28 23:50 14.78991 -62.35105 32009 ft 431 kts 347°
2026-04-28 23:51 14.84850 -62.36435 32009 ft 431 kts 347°
2026-04-28 23:51 14.90709 -62.37777 32009 ft 431 kts 347°
2026-04-28 23:52 14.96570 -62.39117 32009 ft 431 kts 347°
2026-04-28 23:52 15.02426 -62.40450 32009 ft 431 kts 347°
2026-04-28 23:53 15.08296 -62.41788 32011 ft 431 kts 347°
2026-04-28 23:53 15.14155 -62.43127 32011 ft 431 kts 347°
2026-04-28 23:54 15.19976 -62.44459 32011 ft 431 kts 347°
2026-04-28 23:54 15.25833 -62.45801 32010 ft 431 kts 347°
2026-04-28 23:55 15.31727 -62.47151 32009 ft 431 kts 347°
2026-04-28 23:55 15.37619 -62.48312 32009 ft 431 kts 351°
2026-04-28 23:56 15.43548 -62.49227 32010 ft 431 kts 352°
2026-04-28 23:56 15.49487 -62.50135 32010 ft 431 kts 351°
2026-04-28 23:57 15.55414 -62.51107 32009 ft 431 kts 351°
2026-04-28 23:57 15.61334 -62.52103 32010 ft 431 kts 351°
2026-04-28 23:58 15.67253 -62.53097 32010 ft 431 kts 351°
2026-04-28 23:58 15.73176 -62.54081 32010 ft 431 kts 351°
2026-04-28 23:59 15.79103 -62.55065 32012 ft 431 kts 351°
2026-04-28 23:59 15.85008 -62.56048 31998 ft 423 kts 351°
2026-04-29 00:00 15.87919 -62.56532 31782 ft 414 kts 351°
2026-04-29 00:00 15.90715 -62.56995 31447 ft 410 kts 351°
2026-04-29 00:00 15.93520 -62.57463 31072 ft 407 kts 351°
2026-04-29 00:00 15.96308 -62.57927 30688 ft 404 kts 351°
2026-04-29 00:01 15.99078 -62.58386 30309 ft 402 kts 351°
2026-04-29 00:01 16.01831 -62.58844 29937 ft 399 kts 351°
2026-04-29 00:01 16.04563 -62.59303 29570 ft 397 kts 350°
2026-04-29 00:01 16.07284 -62.59762 29199 ft 395 kts 350°
2026-04-29 00:02 16.09988 -62.60217 28844 ft 392 kts 351°
2026-04-29 00:02 16.12676 -62.60666 28488 ft 390 kts 351°
2026-04-29 00:02 16.15351 -62.61113 28136 ft 388 kts 351°
2026-04-29 00:02 16.18008 -62.61556 27791 ft 386 kts 351°
2026-04-29 00:03 16.20655 -62.61997 27441 ft 384 kts 351°
2026-04-29 00:03 16.23282 -62.62437 27098 ft 382 kts 351°
2026-04-29 00:03 16.25896 -62.62874 26737 ft 379 kts 351°
2026-04-29 00:03 16.28496 -62.63308 26388 ft 377 kts 351°
2026-04-29 00:04 16.31078 -62.63739 26032 ft 375 kts 351°
2026-04-29 00:04 16.33650 -62.64168 25669 ft 373 kts 351°
2026-04-29 00:04 16.36206 -62.64595 25318 ft 371 kts 351°
2026-04-29 00:04 16.38746 -62.65021 24957 ft 369 kts 350°
2026-04-29 00:05 16.41270 -62.65447 24586 ft 367 kts 350°
2026-04-29 00:05 16.43783 -62.65870 24218 ft 365 kts 351°
2026-04-29 00:05 16.46280 -62.66288 23854 ft 362 kts 351°
2026-04-29 00:05 16.48765 -62.66704 23482 ft 360 kts 351°
2026-04-29 00:06 16.51229 -62.67116 23112 ft 358 kts 351°
2026-04-29 00:06 16.53682 -62.67528 22739 ft 356 kts 351°
2026-04-29 00:06 16.56121 -62.67937 22374 ft 354 kts 351°
2026-04-29 00:06 16.58549 -62.68342 22009 ft 352 kts 351°
2026-04-29 00:07 16.60962 -62.68747 21642 ft 350 kts 351°
2026-04-29 00:07 16.63357 -62.69147 21276 ft 348 kts 351°
2026-04-29 00:07 16.65740 -62.69546 20909 ft 346 kts 351°
2026-04-29 00:07 16.68110 -62.69941 20543 ft 344 kts 351°
2026-04-29 00:08 16.70471 -62.70335 20175 ft 342 kts 351°
2026-04-29 00:08 16.72812 -62.70729 19813 ft 340 kts 350°
2026-04-29 00:08 16.75143 -62.71122 19453 ft 338 kts 350°
2026-04-29 00:08 16.77460 -62.71512 19097 ft 336 kts 350°
2026-04-29 00:09 16.79766 -62.71903 18744 ft 335 kts 350°
2026-04-29 00:09 16.82058 -62.72293 18396 ft 333 kts 350°
2026-04-29 00:09 16.84336 -62.72680 18051 ft 331 kts 350°
2026-04-29 00:09 16.86604 -62.73063 17709 ft 329 kts 350°
2026-04-29 00:10 16.88860 -62.73443 17371 ft 328 kts 351°
2026-04-29 00:10 16.91105 -62.73821 17035 ft 326 kts 350°
2026-04-29 00:10 16.93339 -62.74198 16702 ft 324 kts 350°
2026-04-29 00:10 16.95561 -62.74572 16374 ft 323 kts 350°
2026-04-29 00:11 16.97773 -62.74944 16052 ft 321 kts 351°
2026-04-29 00:11 16.99975 -62.75312 15724 ft 320 kts 351°
2026-04-29 00:11 17.04344 -62.76041 15083 ft 317 kts 351°
2026-04-29 00:12 17.06515 -62.76406 14765 ft 315 kts 350°
2026-04-29 00:12 17.08672 -62.76772 14454 ft 314 kts 350°
2026-04-29 00:12 17.10820 -62.77137 14141 ft 312 kts 350°
2026-04-29 00:12 17.12957 -62.77501 13833 ft 311 kts 350°
2026-04-29 00:13 17.15088 -62.77860 13523 ft 309 kts 350°
2026-04-29 00:13 17.17207 -62.78215 13216 ft 308 kts 351°
2026-04-29 00:13 17.19317 -62.78568 12905 ft 306 kts 350°
2026-04-29 00:13 17.21415 -62.78924 12596 ft 305 kts 350°
2026-04-29 00:14 17.23504 -62.79278 12289 ft 303 kts 350°
2026-04-29 00:14 17.25585 -62.79632 11974 ft 302 kts 350°
2026-04-29 00:14 17.27663 -62.79987 11421 ft 309 kts 350°
2026-04-29 00:14 17.29856 -62.80360 10502 ft 330 kts 350°
2026-04-29 00:15 17.32278 -62.80777 10023 ft 376 kts 350°
2026-04-29 00:15 17.34940 -62.81229 9513 ft 394 kts 351°
2026-04-29 00:15 17.37662 -62.81686 9274 ft 398 kts 351°
2026-04-29 00:15 17.40410 -62.82147 9866 ft 400 kts 351°
2026-04-29 00:16 17.43163 -62.82607 10754 ft 400 kts 351°
2026-04-29 00:16 17.45872 -62.83205 11610 ft 398 kts 341°
2026-04-29 00:16 17.48380 -62.84472 11972 ft 408 kts 326°
2026-04-29 00:16 17.49839 -62.85721 11800 ft 409 kts 316°
2026-04-29 00:17 17.51867 -62.87794 11285 ft 405 kts 315°
2026-04-29 00:17 17.53863 -62.89850 10560 ft 401 kts 315°
2026-04-29 00:17 17.55875 -62.91915 9837 ft 397 kts 315°
2026-04-29 00:17 17.57844 -62.93918 9228 ft 393 kts 316°
2026-04-29 00:18 17.59789 -62.95885 9026 ft 394 kts 316°
2026-04-29 00:18 17.61791 -62.97904 8999 ft 394 kts 316°
2026-04-29 00:18 17.63761 -62.99889 8996 ft 386 kts 316°
2026-04-29 00:18 17.65643 -63.01782 8936 ft 365 kts 316°
2026-04-29 00:19 17.67405 -63.03555 8804 ft 348 kts 316°
2026-04-29 00:19 17.69111 -63.05276 8687 ft 333 kts 316°
2026-04-29 00:19 17.70767 -63.06951 8551 ft 321 kts 316°
2026-04-29 00:19 17.72313 -63.08514 8428 ft 302 kts 316°
2026-04-29 00:20 17.73778 -63.09991 8226 ft 284 kts 316°
2026-04-29 00:20 17.75182 -63.11408 7758 ft 278 kts 316°
2026-04-29 00:20 17.76567 -63.12810 7242 ft 275 kts 315°
2026-04-29 00:20 17.77936 -63.14198 6704 ft 273 kts 315°
2026-04-29 00:21 17.79296 -63.15575 6180 ft 271 kts 316°
2026-04-29 00:21 17.80645 -63.16939 5647 ft 269 kts 316°
2026-04-29 00:21 17.81983 -63.18291 5146 ft 266 kts 316°
2026-04-29 00:21 17.83313 -63.19636 4995 ft 266 kts 316°
2026-04-29 00:22 17.84647 -63.20985 4800 ft 265 kts 316°
2026-04-29 00:22 17.85968 -63.22321 4265 ft 263 kts 316°
2026-04-29 00:22 17.87280 -63.23648 3828 ft 258 kts 316°
2026-04-29 00:22 17.88528 -63.24909 3707 ft 240 kts 316°
2026-04-29 00:23 17.89687 -63.26082 3548 ft 225 kts 315°
2026-04-29 00:23 17.90855 -63.27166 3185 ft 219 kts 325°
2026-04-29 00:23 17.92192 -63.27905 2769 ft 217 kts 340°
2026-04-29 00:23 17.93657 -63.28268 2341 ft 216 kts 352°
2026-04-29 00:24 17.95144 -63.28494 1897 ft 215 kts 351°
2026-04-29 00:24 17.96613 -63.28724 1718 ft 214 kts 351°
2026-04-29 00:24 17.98091 -63.28955 1717 ft 216 kts 351°
2026-04-29 00:24 17.99585 -63.29102 1711 ft 216 kts
2026-04-29 00:25 18.00947 -63.28508 1715 ft 216 kts 41°
2026-04-29 00:25 18.01748 -63.27198 1716 ft 216 kts 76°
2026-04-29 00:25 18.01996 -63.25636 1718 ft 217 kts 82°
2026-04-29 00:25 18.02210 -63.24113 1722 ft 200 kts 82°
2026-04-29 00:26 18.02401 -63.22767 1713 ft 174 kts 82°
2026-04-29 00:26 18.02572 -63.21571 1704 ft 160 kts 82°
2026-04-29 00:26 18.02734 -63.20434 1704 ft 154 kts 82°